カタログに戻る

RADUGA 23

運用中軍事GEO
NORAD 19928·PAYLOAD·🇷🇺 Russia

打ち上げ Apr 14, 1989 から Baikonur Cosmodrome

Loading…

TLE

最新Source: Space-Track

元期: Sep 13, 2026, 17:38 UTC

1 19928U 89030A   26256.73531454 -.00000126  00000-0  00000-0 0  9992
2 19928  11.7033 331.4003 0020492 212.1514 152.4038  1.00179912135746

AllMySatでRADUGA 23をリアルタイム追跡

Download on the App Store